[[{"header":{"parameterUnit":"m.s-1","parameterCategory":1,"la1":30.2991,"la2":30.254,"lo1":-89.0895,"lo2":-89.0444,"dy":0.0017,"dx":0.0017,"nx":28,"ny":28,"refTime":"2025-11-27T03:00:00:Z","depth":0,"parameterNumber":2,"parameterNumberName":"U-component_of_WINDS"},"data":[0,0,0,0,0,0,0,0,0,0,0,0,0,0,0,0,0,0,0,0,0,0,0,0,0,0,0,0,0,0,0,0,0,0,0,0,0,0,0,0,0,0,0,0,0,0,0,0,0,0,0,0,0,0,0,0,0,0,-1.9224,-1.9225,0,-1.9315,-1.9316,-1.9317,-1.9267,-1.9264,-1.9262,-1.9259,-1.9353,-1.9358,-1.9363,0,0,0,0,0,0,0,0,0,0,0,0,0,-1.9006,-1.9011,-1.9224,-1.9225,-1.9227,-1.9315,-1.9316,-1.9318,-1.9267,-1.9264,-1.9261,-1.9258,-1.9352,-1.9357,-1.9363,0,0,0,0,0,0,0,0,0,0,0,0,0,-1.91,-1.9012,-1.9224,-1.9212,-1.9212,-1.9315,-1.9316,-1.9318,-1.9268,-1.9264,-1.926,-1.9257,-1.935,-1.9357,-1.9364,-1.9484,0,0,-1.9386,-1.9389,0,0,0,0,0,0,0,0,-1.9094,-1.9108,-1.9213,-1.9213,-1.9213,-1.9276,-1.9274,-1.9374,-1.9269,-1.9247,-1.9259,-1.9255,-1.9331,-1.9339,-1.9365,-1.9489,-1.9493,-1.9387,-1.9391,-1.9394,-1.9396,0,0,0,0,0,0,0,-1.9088,-1.9104,-1.926,-1.9214,-1.9214,-1.9202,-1.9211,-1.9293,-1.9309,-1.9248,-1.9245,-1.9256,-1.933,-1.9358,-1.9366,-1.9494,-1.9387,-1.9393,-1.9398,-1.94,-1.972,-1.9724,0,0,0,0,0,0,-1.9082,-1.9098,-1.9257,-1.9263,-1.9143,-1.9209,-1.9219,-1.9259,-1.9308,-1.9311,-1.9259,-1.9253,-1.9347,-1.9358,-1.9369,-1.9514,-1.9394,-1.9401,-1.9405,-1.9716,-1.9721,-1.9726,0,0,0,0,0,0,-1.9078,-1.9097,-1.9254,-1.918,-1.9199,-1.9217,-1.9262,-1.9263,-1.9291,-1.9316,-1.9319,-1.9285,-1.9345,-1.9359,-1.9456,-1.9516,-1.9404,-1.9411,-1.9711,-1.9718,-1.9724,-1.9803,0,0,0,0,0,0,-1.9072,-1.9096,-1.9142,-1.9181,-1.9203,-1.9339,-1.9266,-1.9268,-1.9303,-1.9297,-1.9341,-1.9344,-1.9343,-1.9445,-1.9463,-1.9524,-1.9417,-1.9706,-1.9714,-1.9722,-1.9795,-1.9811,-1.9825,0,0,0,0,0,-1.9064,-1.9161,-1.9145,-1.9164,-1.9261,-1.9343,-1.9355,-1.9351,-1.9309,-1.9355,-1.9371,-1.9343,-1.9506,-1.9456,-1.9475,-1.9539,-1.9702,-1.9712,-1.9721,-1.9788,-1.9808,-1.9824,0,0,0,0,0,0,-1.9129,-1.9166,-1.9148,-1.9261,-1.9299,-1.9334,-1.9393,-1.9372,-1.9424,-1.9415,-1.9408,-1.9419,-1.9519,-1.9538,-1.9482,-1.9658,-1.9598,-1.9611,-1.9642,-1.9661,-1.9675,-1.967,-1.9423,0,0,0,0,0,-1.9156,-1.922,-1.9248,-1.9345,-1.9364,-1.9375,-1.9411,-1.9404,-1.9444,-1.946,-1.9483,-1.9522,-1.9582,-1.9622,-1.9679,-1.9796,-1.9805,-1.985,-1.9865,-1.9877,-1.989,-1.9953,-1.9973,-1.9756,-1.9756,-1.9756,0,0,-1.9214,-1.9242,-1.9282,-1.9358,-1.9387,-1.9453,-1.939,-1.9462,-1.951,-1.9471,-1.9564,-1.9582,-1.9625,-1.9733,-1.9781,-1.9752,-1.9951,-1.9889,-1.9898,-1.9905,-1.9965,-1.9985,-2.0004,-1.9763,-1.9762,-1.9761,0,0,-1.9352,-1.9379,-1.9463,-1.9492,-1.9537,-1.9543,-1.9563,-1.9601,-1.9611,-1.9704,-1.9675,-1.9732,-1.9836,-1.9868,-1.9898,-2.0046,-2.0022,-2.0064,-2.0143,-2.0205,-2.0222,-2.0237,-2.0291,-2.031,-2.0076,-2.0077,-2.0077,0,-1.9418,-1.9516,-1.9508,-1.9583,-1.9617,-1.9583,-1.9667,-1.9696,-1.9757,-1.9781,-1.9747,-1.9875,-1.9902,-2.0017,-2.0053,-2.0078,-2.01,-2.0061,-2.022,-2.0235,-2.0249,-2.03,-2.0321,-2.0081,-2.0081,-2.008,-2.008,0,-1.9595,-1.9664,-1.9725,-1.9784,-1.9825,-1.9904,-1.9908,-1.995,-1.9939,-1.9949,-2.0043,-2.0073,-2.0135,-2.0161,-2.0152,-2.0275,-2.0255,-2.0221,-2.0161,-2.0275,-2.0323,-2.0343,-2.0089,-2.0087,-2.0085,-2.0084,0,0,-1.9781,-1.9832,-1.9855,-1.9881,-1.9926,-1.9979,-2.0055,-2.0115,-2.0152,-2.0194,-2.0258,-2.0346,-2.0314,-2.0348,-2.0341,-2.0395,-2.0511,-2.0354,-2.0355,-2.0383,-2.0648,-2.0675,-2.0698,-2.0494,-2.0498,-2.05,-2.0645,0,-1.9923,-2.0057,-2.0051,-2.0177,-2.024,-2.0207,-2.0274,-2.0308,-2.0319,-2.0373,-2.0384,-2.0447,-2.0399,-2.0419,-2.0471,-2.0486,-2.0564,-2.0475,-2.0555,-2.0558,-2.0547,-2.0723,-2.0752,-2.0887,-2.0663,-2.0667,-2.0669,0,-2.0108,-2.0156,-2.0288,-2.0323,-2.0349,-2.0409,-2.0463,-2.0515,-2.0553,-2.0557,-2.0594,-2.0577,-2.0654,-2.059,-2.0696,-2.0636,-2.0667,-2.0679,-2.0684,-2.0693,-2.0622,-2.0738,-2.093,-2.0951,-2.0698,-2.0696,-2.0694,0,-2.0231,-2.0328,-2.042,-2.0443,-2.0485,-2.0528,-2.0548,-2.0582,-2.0618,-2.0665,-2.0688,-2.0743,-2.0774,-2.0817,-2.0816,-2.0769,-2.0924,-2.0859,-2.0929,-2.0929,-2.0965,-2.0964,-2.1167,-2.0983,-2.0982,-2.0982,-2.0982,0,-2.0392,-2.0475,-2.0476,-2.0532,-2.0623,-2.0614,-2.0705,-2.072,-2.075,-2.0809,-2.0782,-2.0838,-2.0832,-2.0888,-2.0887,-2.0975,-2.0989,-2.0994,-2.0993,-2.0998,-2.0997,-2.102,-2.1011,-2.0987,-2.0986,-2.0985,-2.0984,0,-2.0547,-2.055,-2.0648,-2.068,-2.0689,-2.0755,-2.0782,-2.0835,-2.0842,-2.0916,-2.0933,-2.0944,-2.1008,-2.1011,-2.1084,-2.1084,-2.1192,-2.1179,-2.1179,-2.1177,-2.1248,-2.1242,-2.1474,-2.1505,-2.1299,-2.1301,-2.1303,0,-2.065,-2.0713,-2.075,-2.0788,-2.081,-2.087,-2.0906,-2.0899,-2.0938,-2.0985,-2.1033,-2.1094,-2.1143,-2.1247,-2.1261,-2.1317,-2.1307,-2.1385,-2.1316,-2.1318,-2.131,-2.1307,-2.1313,-2.1399,-2.1401,-2.1403,-2.1405,0,-2.0834,-2.0832,-2.0886,-2.094,-2.0984,-2.1026,-2.1065,-2.1097,-2.1094,-2.1139,-2.1204,-2.1242,-2.1316,-2.1378,-2.1431,-2.1451,-2.1428,-2.1426,-2.1445,-2.1452,-2.1449,-2.1453,-2.1218,-2.1421,-2.142,-2.1418,-2.1417,-2.1417,-2.0967,-2.1021,-2.1056,-2.1116,-2.1144,-2.1181,-2.1233,-2.1245,-2.1299,-2.136,-2.1351,-2.1424,-2.1458,-2.1528,-2.1552,-2.1608,-2.1581,-2.1609,-2.1617,-2.1624,-2.1632,-2.1438,-2.1618,-2.1617,-2.1617,-2.1616,-2.1616,0,-2.1151,-2.1171,-2.1226,-2.1281,-2.1329,-2.1301,-2.1342,-2.1384,-2.1448,-2.1482,-2.153,-2.1604,-2.1663,-2.1681,-2.1737,-2.1779,-2.177,-2.1794,-2.1792,-2.1797,-2.1652,-2.1631,-2.1801,-2.1801,-2.1801,-2.1801,-2.1801,-2.18,-2.1252,-2.1342,-2.1344,-2.1447,-2.1466,-2.1537,-2.1563,-2.1597,-2.1624,-2.1708,-2.1756,-2.1767,-2.1795,-2.1853,-2.1905,-2.1909,-2.1932,-2.1961,-2.196,-2.1826,-2.1807,-2.179,-2.1769,-2.1966,-2.1966,-2.21,-2.2102,-2.2103]},{"header":{"parameterUnit":"m.s-1","parameterCategory":1,"la1":30.2991,"la2":30.254,"lo1":-89.0895,"lo2":-89.0444,"dy":0.0017,"dx":0.0017,"nx":28,"ny":28,"refTime":"2025-11-27T03:00:00:Z","depth":0,"parameterNumber":3,"parameterNumberName":"V-component_of_WINDS"},"data":[0,0,0,0,0,0,0,0,0,0,0,0,0,0,0,0,0,0,0,0,0,0,0,0,0,0,0,0,0,0,0,0,0,0,0,0,0,0,0,0,0,0,0,0,0,0,0,0,0,0,0,0,0,0,0,0,0,0,-7.2667,-7.2669,0,-7.284,-7.2842,-7.2844,-7.2765,-7.2761,-7.2756,-7.2752,-7.2924,-7.2932,-7.2941,0,0,0,0,0,0,0,0,0,0,0,0,0,-7.2263,-7.2271,-7.2667,-7.2669,-7.2672,-7.284,-7.2842,-7.2845,-7.2766,-7.2761,-7.2755,-7.275,-7.2921,-7.2931,-7.2942,0,0,0,0,0,0,0,0,0,0,0,0,0,-7.2437,-7.2273,-7.2667,-7.2653,-7.2653,-7.2839,-7.2842,-7.2845,-7.2767,-7.276,-7.2754,-7.2748,-7.2918,-7.293,-7.2943,-7.3152,0,0,-7.2982,-7.2988,0,0,0,0,0,0,0,0,-7.2428,-7.2452,-7.2653,-7.2654,-7.2655,-7.2775,-7.2762,-7.2948,-7.2769,-7.2724,-7.2752,-7.2745,-7.2879,-7.2895,-7.2941,-7.316,-7.3167,-7.2983,-7.2991,-7.2997,-7.3,0,0,0,0,0,0,0,-7.2416,-7.2444,-7.2735,-7.2656,-7.2657,-7.2636,-7.2653,-7.2797,-7.2835,-7.2727,-7.2722,-7.2744,-7.2878,-7.2929,-7.2945,-7.3169,-7.2983,-7.2994,-7.3002,-7.3007,-7.3566,-7.3573,0,0,0,0,0,0,-7.2405,-7.2435,-7.273,-7.2741,-7.2523,-7.2648,-7.2668,-7.2743,-7.2834,-7.2841,-7.2749,-7.2739,-7.291,-7.293,-7.295,-7.32,-7.2997,-7.3009,-7.3016,-7.3559,-7.3568,-7.3575,0,0,0,0,0,0,-7.2396,-7.2432,-7.2723,-7.2587,-7.2622,-7.2662,-7.2747,-7.2749,-7.28,-7.285,-7.2856,-7.2794,-7.2906,-7.2932,-7.3102,-7.3205,-7.3014,-7.3026,-7.3551,-7.3562,-7.3572,-7.3702,0,0,0,0,0,0,-7.2385,-7.2429,-7.251,-7.2589,-7.263,-7.2875,-7.2753,-7.2757,-7.2823,-7.2812,-7.2894,-7.2901,-7.2903,-7.3083,-7.3115,-7.3219,-7.3036,-7.3542,-7.3556,-7.3568,-7.3689,-7.3716,-7.3739,0,0,0,0,0,-7.2371,-7.2539,-7.2515,-7.2551,-7.2732,-7.2881,-7.2904,-7.2904,-7.2832,-7.2913,-7.2945,-7.2899,-7.3189,-7.3102,-7.3136,-7.3246,-7.3535,-7.3552,-7.3567,-7.3677,-7.371,-7.3738,0,0,0,0,0,0,-7.247,-7.2549,-7.2523,-7.2723,-7.2796,-7.2867,-7.2969,-7.2939,-7.3032,-7.3018,-7.3012,-7.3031,-7.3207,-7.3243,-7.3145,-7.3452,-7.335,-7.3374,-7.3422,-7.3454,-7.3479,-7.3467,-7.3047,0,0,0,0,0,-7.2516,-7.2631,-7.2693,-7.2863,-7.2901,-7.2929,-7.2994,-7.2987,-7.3062,-7.3092,-7.3136,-7.3209,-7.3316,-7.3387,-7.3488,-7.3693,-7.3709,-7.3785,-7.381,-7.3831,-7.3852,-7.3961,-7.3996,-7.3628,-7.3628,-7.3628,0,0,-7.261,-7.2668,-7.2741,-7.2885,-7.294,-7.3059,-7.2956,-7.3085,-7.3172,-7.3111,-7.3275,-7.331,-7.339,-7.3578,-7.3663,-7.3614,-7.3957,-7.3851,-7.3867,-7.3877,-7.3981,-7.4016,-7.4047,-7.3639,-7.3637,-7.3635,0,0,-7.2843,-7.2899,-7.3046,-7.3104,-7.3191,-7.3208,-7.3243,-7.332,-7.3341,-7.3506,-7.3462,-7.3564,-7.3749,-7.3808,-7.3862,-7.4116,-7.4077,-7.4149,-7.4281,-7.4388,-7.4417,-7.4443,-7.4533,-7.4565,-7.4169,-7.417,-7.417,0,-7.2949,-7.3127,-7.3125,-7.3259,-7.3322,-7.3274,-7.3422,-7.3478,-7.3592,-7.3636,-7.358,-7.3811,-7.3861,-7.4062,-7.4124,-7.417,-7.4209,-7.414,-7.4413,-7.4439,-7.4463,-7.4549,-7.4583,-7.4178,-7.4177,-7.4176,-7.4175,0,-7.3253,-7.3377,-7.3486,-7.36,-7.3675,-7.3815,-7.3832,-7.3909,-7.3895,-7.3918,-7.4085,-7.4144,-7.4257,-7.4303,-7.4291,-7.4503,-7.4469,-7.4413,-7.4311,-7.4506,-7.4587,-7.462,-7.419,-7.4187,-7.4184,-7.4182,0,0,-7.3555,-7.3665,-7.3705,-7.3756,-7.3847,-7.3942,-7.4078,-7.419,-7.4255,-7.4335,-7.4449,-7.4606,-7.4555,-7.4616,-7.461,-7.4704,-7.4901,-7.4636,-7.4638,-7.4683,-7.5136,-7.5178,-7.5217,-7.4875,-7.4881,-7.4886,-7.513,0,-7.3794,-7.4036,-7.4038,-7.426,-7.4374,-7.4328,-7.4447,-7.4515,-7.4539,-7.4637,-7.4663,-7.4775,-7.4699,-7.4736,-7.4827,-7.4858,-7.4992,-7.484,-7.4979,-7.4984,-7.4961,-7.5259,-7.5304,-7.5531,-7.5161,-7.5166,-7.517,0,-7.4106,-7.4198,-7.4433,-7.4507,-7.4554,-7.4662,-7.4763,-7.4858,-7.4933,-7.4944,-7.5013,-7.4992,-7.5128,-7.5022,-7.521,-7.5107,-7.5163,-7.5187,-7.5195,-7.5209,-7.5089,-7.528,-7.5603,-7.5637,-7.522,-7.5216,-7.5212,0,-7.4303,-7.4485,-7.4648,-7.4693,-7.4783,-7.4859,-7.49,-7.4969,-7.5036,-7.5123,-7.5166,-7.5269,-7.5325,-7.5403,-7.5409,-7.5331,-7.5598,-7.5492,-7.561,-7.561,-7.5669,-7.5665,-7.6006,-7.5705,-7.5704,-7.5704,-7.5703,0,-7.457,-7.4715,-7.4738,-7.4838,-7.4999,-7.4997,-7.5155,-7.5189,-7.5251,-7.5355,-7.5321,-7.542,-7.5422,-7.5522,-7.5527,-7.5681,-7.5707,-7.5718,-7.5718,-7.5722,-7.572,-7.5759,-7.5743,-7.5713,-7.5711,-7.5709,-7.5707,0,-7.4817,-7.4838,-7.5013,-7.5085,-7.5106,-7.5221,-7.5281,-7.5376,-7.5396,-7.5529,-7.556,-7.5593,-7.5709,-7.5722,-7.5857,-7.586,-7.6046,-7.6029,-7.6022,-7.6019,-7.6136,-7.6125,-7.6514,-7.6565,-7.6231,-7.6234,-7.6236,0,-7.4987,-7.5098,-7.5181,-7.525,-7.5295,-7.5406,-7.5474,-7.5476,-7.5548,-7.5641,-7.5725,-7.5838,-7.5928,-7.6115,-7.6149,-7.6252,-7.6237,-7.6366,-7.6252,-7.6252,-7.6239,-7.6232,-7.6243,-7.6388,-7.6392,-7.6395,-7.6397,0,-7.5286,-7.529,-7.5391,-7.5496,-7.5578,-7.566,-7.5737,-7.5794,-7.5806,-7.5888,-7.6007,-7.6078,-7.6216,-7.6328,-7.6429,-7.6468,-7.6435,-7.6433,-7.6465,-7.6471,-7.6462,-7.6468,-7.6082,-7.6424,-7.6421,-7.6419,-7.6418,-7.6417,-7.5499,-7.5595,-7.5669,-7.5782,-7.584,-7.5913,-7.6005,-7.6038,-7.6138,-7.6252,-7.6246,-7.6378,-7.6447,-7.658,-7.6627,-7.6728,-7.6685,-7.6732,-7.6744,-7.6756,-7.6768,-7.6446,-7.6746,-7.6745,-7.6744,-7.6744,-7.6743,0,-7.5796,-7.5842,-7.5945,-7.6055,-7.6143,-7.6105,-7.6188,-7.6264,-7.638,-7.6449,-7.654,-7.6676,-7.6784,-7.6826,-7.6932,-7.7004,-7.6992,-7.7032,-7.7027,-7.7036,-7.68,-7.6761,-7.7041,-7.704,-7.704,-7.704,-7.704,-7.704,-7.5961,-7.6122,-7.6135,-7.6323,-7.6367,-7.6497,-7.6547,-7.6613,-7.6668,-7.6823,-7.6913,-7.694,-7.6998,-7.7107,-7.7204,-7.7214,-7.7254,-7.7301,-7.7304,-7.7083,-7.7053,-7.7024,-7.6988,-7.731,-7.731,-7.7532,-7.7534,-7.7535]}]]